Regional Weather Roundup
Issued by NWS

Home | Current Version | Previous Version | Graphics & Text | Print | Product List | Glossary On
Versions: 1 2 3 4 5 6 7 8 9 10 11 12 13 14 15 16 17 18 19 20 21 22 23 24 25 26 27 28 29 30 31 32 33 34 35 36 37 38 39 40 41 42 43 44 45 46 47 48
000
ASUS45 KBOU 051107
RWRCO

WEATHER ROUNDUP FOR COLORADO
NATIONAL WEATHER SERVICE DENVER/BOULDER CO
400 AM MST THU MAR 05 2015

NOTE: "FAIR" INDICATES FEW OR NO CLOUDS BELOW 12000 FEET WITH NO
SIGNIFICANT WEATHER AND/OR OBSTRUCTIONS TO VISIBILITY.

COZ001>005-013-030-031-051200-
...NORTHWEST COLORADO...

CITY           SKY/WX    TMP DP  RH WIND       PRES   REMARKS
CRAIG          PTCLDY     2  -3  80 W5        30.32S WCI  -8
HAYDEN         PTCLDY     3  -4  72 SE12      30.29S WCI -13
MEEKER         PTCLDY    11   2  67 E3        30.33R
MOUNT WERNER   NOT AVBL
STEAMBOAT SPGS CLOUDY     1  -4  79 CALM      30.30S
WALDEN         PTCLDY     1  -6  71 E6        30.20R WCI -10
$$

COZ006>008-011-051200-
...WEST CENTRAL VALLEYS...

CITY           SKY/WX    TMP DP  RH WIND       PRES   REMARKS
GRAND JUNCTION CLEAR     21  11  65 E9        30.35S WCI  11
MONTROSE       PTCLDY    19  10  68 S8        30.38R WCI   9
EAGLE          MOCLDY     7   1  78 E5        30.40S WCI  -2
RIFLE          CLEAR     17   8  67 SE5       30.39R WCI  10
DELTA          NOT AVBL
NUCLA          PTCLDY    21  12  68 E5        30.37S WCI  15
$$

COZ017>023-064>068-051200-
...SOUTHWEST COLORADO...

CITY           SKY/WX    TMP DP  RH WIND       PRES   REMARKS
DURANGO        CLEAR     13   5  70 CALM      30.29R
CORTEZ         CLEAR     19  12  74 CALM      30.32S
PAGOSA SPRINGS CLEAR      0  -6  74 CALM      30.28R
TELLURIDE      PTCLDY     8  -1  66 SE7       30.29S WCI  -4
WOLF CREEK PAS MOCLDY     3   0  85 CALM      30.21R
$$

COZ009-010-012-014-032>034-037-058>063-051200-
...CENTRAL COLORADO...

CITY           SKY/WX    TMP DP  RH WIND       PRES   REMARKS
ASPEN          PTCLDY     1  -7  68 SW9       30.29S WCI -14
BUENA VISTA    PTCLDY     6  -6  57 W3        30.22F
COPPER MTN     NOT AVBL
BERTHOUD PASS  FAIR      -8 -15  71 NW31G41   30.01R WCI -37
COTTONWOOD PAS PTCLDY    16 -17  22 NW12G21   30.14S WCI   3
GUNNISON       PTCLDY     0 -11  60 CALM      30.37R
KREMMLING      MOCLDY     0  -6  78 CALM      30.33R
LEADVILLE      MOCLDY    -8 -17  64 NE9       30.17S WCI -25
SALIDA         PTCLDY    15  -5  40 N13       30.31S WCI   1
SUNLIGHT       CLOUDY     9   5  85 CALM        N/A
WILKERSON PASS PTCLDY     5 -17  36 W14G21    30.08F WCI -12
$$

COZ069>075-051200-
...SAN LUIS VALLEY/SANGRE DE CRISTO MOUNTAINS...

CITY           SKY/WX    TMP DP  RH WIND       PRES   REMARKS
ALAMOSA        PTCLDY     9   3  77 SW7       30.28R WCI  -2
LA VETA PASS   PTCLDY     5  -6  61 MISG      30.12S
SAGUACHE       PTCLDY    14   1  57 NW12      30.28R WCI   0
$$

COZ035-036-038>040-051200-
...NORTHERN COLORADO FRONT RANGE...

CITY           SKY/WX    TMP DP  RH WIND       PRES   REMARKS
DENVER INTL AP PTCLDY    16   0  49 S17       30.14F WCI   0
DMNS CITY PARK   N/A     13   2  59 SE8       30.15F WCI   2
AURORA         CLEAR     11  -2  54 S12       30.15F WCI  -3
FRONT RANGE AP PTCLDY    18   3  53 S20       30.15S WCI   1
ERIE MUNI ARPT CLEAR      2  -1  85 CALM      30.16F
BOULDER MUN AP CLEAR      9   5  85 E3        30.14F
CENTENNIAL     PTCLDY     9  -2  61 SE5       30.14F WCI   1
BROOMFIELD     CLEAR     16   1  53 SE7       30.14S WCI   6
FORT COLLINS   PTCLDY     7   5  92 N5        30.17F WCI  -2
LONGMONT       PTCLDY     3  -1  81 SW3       30.18F
$$

COZ041-046-047-076>085-087-088-051200-
...PIKES PEAK/PALMER DIVIDE AND SOUTHERN FOOTHILLS...

CITY           SKY/WX    TMP DP  RH WIND       PRES   REMARKS
COLO. SPRINGS  PTCLDY     1  -5  75 N8        30.18F WCI -13
A. F. ACADEMY  PTCLDY    -4  -8  80 N10       30.15F WCI -21
ELLICOTT       NOT AVBL
FALCON         PTCLDY     4  -2  74 W7        30.16S WCI  -8
FORT CARSON    CLEAR      2  -2  85 NW8       30.19F WCI -12
LIMON          PTCLDY    -7 -11  83 N8        30.20F WCI -23
MONUMENT HILL  PTCLDY     5  -6  61 S9        30.12S WCI  -9
TRINIDAD       PTCLDY     6   1  80 W13       30.24S WCI -10
$$

COZ042>045-048>051-090-091-051200-
...NORTHEAST COLORADO...

CITY           SKY/WX    TMP DP  RH WIND       PRES   REMARKS
GREELEY ARPT   MOCLDY     3  -6  66 CALM      30.18F
AKRON          CLEAR     10   5  80 SW12      30.19F WCI  -5
BURLINGTON     CLEAR     13   6  74 SW12      30.25F WCI  -1
WRAY           PTCLDY    11   7  85 SW8       30.26S WCI  -1
STERLING       CLEAR     10   7  85 SW8       30.22F WCI  -1
HOLYOKE        NOT AVBL
FORT MORGAN    CLEAR      5   1  85 W7        30.21S WCI  -7
$$

COZ086-089-092>099-051200-
...SOUTHEAST COLORADO...

CITY           SKY/WX    TMP DP  RH WIND       PRES   REMARKS
PUEBLO         PTCLDY     2  -1  88 NW5       30.28S WCI  -8
LA JUNTA       CLEAR     11   6  81 W10       30.31S WCI  -3
LAMAR          CLEAR     13  10  88 SW8       30.32F WCI   2
SPRINGFIELD      N/A      7   3  84 SW8       30.30F WCI  -6
$$


USA.gov is the U.S. government's official web portal to all federal, state and local government web resources and services.